Change the Weather History Date:

Tuesday, August 20, 2013

  Actual Average (KCKC) Record (KCKC)
Temperature  
Mean Temperature 60 °F -  
Max Temperature 73 °F 69 °F 118 °F (1997)
Min Temperature 51 °F 48 °F 37 °F (2004)
Degree Days  
Heating Degree Days 4    
Growing Degree Days 10 (Base 50)    
Moisture  
Dew Point 58 °F    
Average Humidity 91    
Maximum Humidity 97    
Minimum Humidity 76    
Precipitation  
Precipitation 0.00 in - - ()
Sea Level Pressure  
Sea Level Pressure 29.84 in    
Wind  
Wind Speed 1 mph (WSW)    
Max Wind Speed 6 mph    
Max Gust Speed -    
Averages and records for this station are not official NWS values.
T = Trace of Precipitation, MM = Missing Value Source: NWS Daily Summary

Daily Weather History Graph

Daily Weather History Graph

Search for Another Location

Airport or City:

Trip Planner

Search our weather history database for the weather conditions in past years. The results will help you decide how hot, cold, wet, or windy it might be!

Date:

Astronomy

Aug. 20, 2013 Rise Set
Actual Time 6:03 AM CDT 8:04 PM CDT
Civil Twilight 5:30 AM CDT 8:37 PM CDT
Nautical Twilight 4:49 AM CDT 9:18 PM CDT
Astronomical Twilight 4:03 AM CDT 10:04 PM CDT
Moon 7:31 PM CDT (8/20) 5:36 AM CDT (8/20)
Length of Visible Light 15h 07m
Length of Day
14h 00m
Full, 100% of the Moon is Illuminated
Aug 20
Full
Aug 20
Full
Aug 28
Last Quarter
Sep 5
New
Sep 12
First Quarter

Hourly Weather History & Observations

Time (CDT) Temp. Dew Point Humidity Pressure Visibility Wind Dir Wind Speed Gust Speed Precip Events Conditions
12:56 AM 52.0 °F 48.9 °F 89% 29.86 in - Calm Calm - N/A   Unknown
1:56 AM 51.1 °F 48.9 °F 92% 29.86 in - Calm Calm - N/A   Unknown
2:56 AM 52.0 °F 50.0 °F 93% 29.85 in - Calm Calm - N/A   Unknown
3:56 AM 52.0 °F 51.1 °F 97% 29.85 in - Calm Calm - N/A   Unknown
4:56 AM 54.0 °F 53.1 °F 97% 29.85 in - Calm Calm - N/A   Unknown
5:56 AM 55.9 °F 54.0 °F 93% 29.86 in - Calm Calm - N/A   Unknown
6:56 AM 54.0 °F 53.1 °F 97% 29.87 in - Calm Calm - N/A   Unknown
7:56 AM 57.9 °F 57.0 °F 97% 29.89 in - Calm Calm - N/A   Unknown
8:56 AM 59.0 °F 57.0 °F 93% 29.88 in - WSW 3.5 mph - N/A   Unknown
9:56 AM 57.0 °F 55.0 °F 93% 29.87 in - SW 4.6 mph - N/A   Unknown
10:56 AM 59.0 °F 57.0 °F 93% 29.87 in - WSW 5.8 mph - N/A   Unknown
11:56 AM 61.0 °F 57.9 °F 90% 29.86 in - WSW 3.5 mph - N/A   Unknown
12:56 PM 60.1 °F 57.9 °F 93% 29.86 in - SW 4.6 mph - N/A   Unknown
1:56 PM 66.0 °F 60.1 °F 81% 29.85 in - SW 3.5 mph - N/A   Unknown
2:56 PM 70.0 °F 62.1 °F 76% 29.83 in - WSW 4.6 mph - N/A   Unknown
3:56 PM 69.1 °F 63.0 °F 81% 29.81 in - Calm Calm - N/A   Unknown
4:56 PM 69.1 °F 64.0 °F 84% 29.80 in - SW 4.6 mph - N/A   Unknown
5:56 PM 69.1 °F 64.0 °F 84% 29.79 in - WSW 3.5 mph - N/A   Unknown
6:56 PM 66.9 °F 64.0 °F 90% 29.79 in - Calm Calm - N/A   Unknown
7:56 PM 66.0 °F 63.0 °F 90% 29.79 in - Calm Calm - N/A   Unknown
8:56 PM 64.9 °F 62.1 °F 90% 29.79 in - Calm Calm - N/A   Unknown
9:56 PM 63.0 °F 60.1 °F 90% 29.80 in - Calm Calm - N/A   Unknown
10:56 PM 62.1 °F 60.1 °F 93% 29.79 in - Calm Calm - N/A   Unknown
11:56 PM 61.0 °F 60.1 °F 97% 29.78 in - Calm Calm - N/A   Unknown